Location: Squirrel Cove
(50.1074°N, 124.9139°W)
Time: 18:03:36
(UTC-08:00)

Envisat - Visible Passes

Search period start: 05 December 2021 00:00
Search period end: 15 December 2021 00:00
Orbit: 764 x 766 km, 98.2° (Epoch: 05 December)

Date Brightness Start Highest point End Pass type
(mag) Time Alt. Az. Time Alt. Az. Time Alt. Az.
05 Dec 3.4 05:16:19 10° NNE 05:21:23 63° ESE 05:26:25 10° S visible
05 Dec 4.1 06:56:05 10° N 07:00:00 23° WNW 07:03:54 10° WSW visible
06 Dec 4.7 04:39:47 10° NNE 04:44:20 32° E 04:48:50 10° SSE visible
06 Dec 3.3 06:18:41 10° N 06:23:27 41° WNW 06:28:12 10° SW visible
06 Dec 5.8 17:39:24 10° SW 17:43:07 20° W 17:46:51 10° NW visible
07 Dec 5.7 04:03:56 10° NE 04:07:04 16° E 04:10:09 10° SE visible
07 Dec 2.9 05:41:36 10° NNE 05:46:43 81° WNW 05:51:48 10° SSW visible
07 Dec 4.5 07:22:06 10° NNW 07:24:59 15° NW 07:27:50 10° W visible
07 Dec 4.6 17:01:10 10° SSW 17:05:55 39° W 17:10:42 10° NNW visible
08 Dec 3.8 05:04:49 10° NNE 05:09:48 51° E 05:14:44 10° S visible
08 Dec 3.8 06:44:19 10° N 06:48:33 27° WNW 06:52:47 10° WSW visible
08 Dec 6.1 18:06:46 10° WSW 18:08:46 12° W 18:10:48 10° WNW visible
09 Dec 5.0 04:28:26 10° NE 04:32:41 26° E 04:36:52 10° SSE visible
09 Dec 3.1 06:07:02 10° N 06:11:57 51° WNW 06:16:51 10° SW visible
09 Dec 5.5 17:27:18 10° SSW 17:31:25 25° W 17:35:35 10° NW visible
10 Dec 5.9 03:53:03 10° ENE 03:55:20 13° E 03:57:36 10° ESE visible
10 Dec 3.0 05:30:03 10° NNE 05:35:10 83° ESE 05:40:15 10° SSW visible
10 Dec 4.3 07:10:11 10° NNW 07:13:34 18° NW 07:16:56 10° W visible
10 Dec 4.2 16:49:23 10° S 16:54:18 49° W 16:59:14 10° NNW visible
11 Dec 4.2 04:53:21 10° NNE 04:58:11 41° E 05:02:58 10° SSE visible
11 Dec 3.6 06:32:36 10° N 06:37:06 32° WNW 06:41:34 10° SW visible
11 Dec 5.9 17:54:06 10° WSW 17:57:03 15° W 18:00:00 10° NW visible
12 Dec 5.3 04:17:09 10° NE 04:20:59 21° E 04:24:48 10° SE visible
12 Dec 2.9 05:55:24 10° N 06:00:26 62° WNW 06:05:26 10° SSW visible
12 Dec 5.1 17:15:19 10° SSW 17:19:46 30° W 17:24:15 10° NNW visible
13 Dec 6.1 03:43:17 10° E 03:43:35 10° E 03:43:53 10° E visible
13 Dec 3.2 05:18:30 10° NNE 05:23:35 68° ESE 05:28:38 10° S visible
13 Dec 4.1 06:58:21 10° N 07:02:09 22° WNW 07:05:56 10° WSW visible
14 Dec 4.5 04:41:55 10° NNE 04:46:33 34° E 04:51:07 10° SSE visible
14 Dec 3.4 06:20:54 10° N 06:25:37 39° WNW 06:30:19 10° SW visible
14 Dec 5.8 17:41:46 10° SW 17:45:20 19° W 17:48:55 10° NW visible
